Flag for U.S.A. Weather past 2 weeks in Sioux Falls, South Dakota, U.S.A.

27 °F

Light snow. Ice fog.

Feels Like: 23 °F
Forecast: 25 / 31 °F
Wind: 3 mph from Southwest

Location: Foss Field

Current Time: Dec 1, 2015 at 2:29:11 AM

Latest Report: Dec 1, 2015 at 1:56 AM

Visibility: 2 mi

Pressure: 29.67 "Hg

Humidity: 92%

Dew point: 25 °F

Location of Sioux FallsLocation

Historic Weather in Sioux Falls — Graph


Sioux Falls temperature yesterday

Maximum temperature yesterday: 30 °F (at 12:56 AM)
Minimum temperature yesterday: 28 °F (at 9:56 PM)
Average temperature yesterday: 29 °F

Past Weeks' High & Low Weather Summary

High54 °F (Nov 17, 5:56 AM)100% (Nov 25, 10:00 AM)30.71 "Hg (Nov 25, 10:00 AM)
Low5 °F (Nov 22, 2:56 AM)24% (Nov 19, 3:56 PM)29.15 "Hg (Nov 18, 12:56 PM)
Average30 °F78%30.06 "Hg
* Reported Nov 15 11:56 PM — Nov 30 11:56 PM, Sioux Falls, Weather by CustomWeather, © 2015

Note: Actual official high and low records may vary slightly from our data, if they occured in-between our weather recording intervals... More about our weather records


Sioux Falls weather history for previous 24 hours

Time TempWeatherWind HumidityBarometerVisibility
11:56 PM
Mon, Nov 30
28 °FLight snow. Ice fog.No wind93%29.70 "Hg1 mi
10:56 PM28 °FLight snow. Ice fog.No wind93%29.72 "Hg2 mi
9:56 PM28 °FLight snow. Ice fog.No wind93%29.75 "Hg1 mi
9:04 PM29 °FSnow. Ice fog.5 mph93%29.71 "Hg1 mi
8:56 PM29 °FSnow. Ice fog.3 mph93%29.76 "Hg1 mi
7:56 PM29 °FIce fog.3 mph93%29.80 "Hg1 mi
7:04 PM29 °FLight snow. Ice fog.5 mph93%29.77 "Hg1 mi
6:56 PM29 °FLight snow. Ice fog.5 mph93%29.82 "Hg3 mi
5:56 PM30 °FLight snow. Ice fog.6 mph89%29.85 "Hg3 mi
5:01 PM29 °FLight snow. Ice fog.8 mph93%29.81 "Hg2 mi
3:56 PM29 °FLight snow. Ice fog.9 mph93%29.89 "Hg1 mi
2:56 PM29 °FSnow. Ice fog.9 mph93%29.91 "Hg1 mi
1:56 PM29 °FSnow. Ice fog.8 mph93%29.95 "Hg0 mi
12:56 PM29 °FSnow. Ice fog.12 mph93%29.98 "Hg0 mi
11:56 AM29 °FHeavy snow. Ice fog.9 mph93%30.02 "Hg0 mi
10:56 AM30 °FHeavy snow. Ice fog.8 mph92%30.07 "Hg0 mi
9:56 AM30 °FLight snow. Ice fog.10 mph92%30.09 "Hg1 mi
8:56 AM30 °FLight freezing rain. Ice fog.9 mph92%30.10 "Hg2 mi
7:56 AM30 °FLight snow. Ice fog.8 mph89%30.11 "Hg2 mi
6:56 AM29 °FLight snow. Ice fog.7 mph93%30.13 "Hg1 mi
5:56 AM29 °FLight freezing rain. Ice fog.10 mph93%30.14 "Hg4 mi
4:56 AM29 °FLight snow. Ice fog.8 mph89%30.16 "Hg2 mi
3:56 AM30 °FMostly cloudy.8 mph82%30.16 "Hg10 mi
2:56 AM30 °FOvercast.7 mph82%30.19 "Hg10 mi
Weather by CustomWeather, © 2015

See weather overviewHow to use our weather pages